Location: LDNL
(36.4545°S, 141.6685°E)
Time: 15:07:31
(UTC+10:00)

Hubble Space Telescope - Pass Details

Date: 01 July 2022
Orbit: 532 x 535 km, 28.5° (Epoch: 10 August)

Event Time Altitude Azimuth Distance (km) Brightness Sun altitude
Exits shadow 06:59:42 - 290° (WNW) 2,208 3.5 -9.2°
Reaches altitude 10° 07:01:03 10° 300° (WNW) 1,789 3.1 -9.0°
Maximum altitude 07:04:03 19° 347° (NNW) 1,301 2.8 -8.4°
Drops below altitude 10° 07:07:02 10° 33° (NNE) 1,786 4.4 -7.9°
Sets 07:09:46 0° 51° (NE) 2,674 6.1 -7.4°
